Dewpoint
44 46 46 46 47 47 47 46 47 47 47 47 47 46 45 45 44 45 46 53 56 53 53 52 53 54 55 56 57 58 57 57 58 58 59 60 61 62 64 66 66 66 66
45 46 46 47 47 47 47 47 47 47 47 47 47 46 45 45 44 44 45 46 54 55 54 52 53 53 54 55 55 56 56 56 57 58 58 59 60 60 61 61 63 66 66
45 46 47 47 47 47 47 48 48 47 47 47 47 47 46 45 45 45 47 46 48 53 55 54 52 53 54 56 56 56 56 58 59 59 59 59 60 60 61 61 61 63 64
46 46 47 47 48 48 48 48 47 47 47 47 47 47 46 47 46 46 46 47 47 47 50 54 54 54 54 55 55 56 58 58 58 58 58 59 60 60 61 61 60 61 61
46 46 47 47 48 48 48 47 47 47 47 47 47 47 46 46 47 47 46 47 48 49 48 51 54 55 57 58 60 59 58 57 57 58 58 59 59 60 61 60 61 61 61
46 47 48 48 48 48 47 47 47 47 46 46 46 46 47 47 47 48 47 46 47 48 50 49 49 51 59 58 58 59 58 57 58 58 59 59 59 59 59 59 60 61 61
47 47 47 48 48 47 46 46 47 45 45 46 46 45 46 47 46 46 46 46 45 47 48 49 49 52 55 56 56 56 57 57 56 57 58 59 59 59 59 59 60 60 60
47 46 47 48 47 46 47 46 46 46 45 45 44 43 41 43 44 45 45 44 44 46 47 48 52 53 53 53 54 54 55 56 56 56 56 57 59 60 60 60 61 61 62
47 47 47 48 47 47 47 46 47 47 45 44 45 43 40 39 42 44 44 44 44 45 46 48 53 53 52 51 52 52 54 54 55 56 55 56 57 59 60 61 62 61 63
44 47 47 48 47 47 47 47 47 47 48 43 44 44 45 43 40 39 42 43 44 44 45 46 52 53 52 51 51 52 53 53 54 55 55 55 58 58 60 61 61 61 60
45 45 47 47 47 47 47 47 46 45 46 46 46 43 42 42 42 42 40 41 43 43 44 45 47 52 52 51 50 51 52 52 52 53 54 55 56 57 60 61 62 61 58
45 44 47 47 47 47 46 46 46 45 45 46 46 45 44 45 42 43 41 41 41 42 44 46 50 52 52 50 50 51 51 51 51 52 53 54 54 56 60 60 61 62 61
44 43 43 47 47 47 47 47 47 46 45 44 45 45 45 46 47 47 46 44 42 42 44 45 51 50 47 50 49 50 49 51 50 50 51 52 52 54 56 59 59 60 60
44 44 43 43 47 47 47 47 47 46 45 45 44 44 45 45 47 47 46 45 43 40 41 42 47 45 45 46 48 50 47 50 49 49 49 49 50 51 53 54 56 57 57
43 43 43 42 44 46 47 46 46 45 45 45 45 44 44 45 45 45 47 47 45 40 38 40 43 45 43 43 44 45 46 48 49 49 48 48 48 48 49 50 52 53 54
41 42 42 42 42 43 45 46 45 45 45 45 44 43 43 44 44 44 45 45 47 45 41 41 43 43 42 40 42 42 43 47 48 48 47 47 47 45 46 47 47 49 50
38 40 41 42 42 42 43 44 44 44 44 44 43 43 43 43 43 43 43 43 43 44 42 41 41 42 40 40 40 41 42 45 46 47 46 45 47 46 44 43 44 45 46
39 40 41 41 42 42 42 43 43 43 43 43 43 42 42 42 42 42 42 42 42 42 41 39 39 40 40 40 40 40 42 43 45 45 45 45 45 47 44 43 42 42 43
39 39 40 40 41 42 42 42 43 43 43 43 43 42 42 42 41 41 41 41 41 41 41 39 40 39 40 40 40 40 40 42 43 43 45 43 42 44 45 43 41 41 41
37 38 39 40 41 41 42 42 42 42 42 42 42 42 42 41 41 41 40 41 41 40 40 39 39 38 39 40 39 38 37 39 39 40 42 43 43 42 43 43 41 40 39
35 36 36 37 38 38 40 42 42 42 42 42 42 42 42 42 43 43 41 40 40 40 39 39 38 38 37 37 37 37 37 37 36 36 38 38 38 39 42 43 41 39 38
34 35 35 35 35 35 40 43 42 41 41 41 41 41 41 42 42 44 45 45 42 39 38 37 37 37 36 36 36 36 35 33 33 35 34 34 36 37 38 41 42 40 38
34 34 34 35 35 35 39 42 43 39 38 39 39 40 40 41 41 40 41 43 44 45 45 39 38 36 35 36 36 34 34 33 33 34 33 31 32 32 35 38 44 43 40
33 34 34 34 34 33 39 41 43 38 36 37 37 38 38 38 38 40 39 38 38 39 40 42 41 40 38 38 37 36 35 36 35 34 31 30 29 30 31 33 39 43 40
32 32 33 32 32 33 38 41 41 36 36 35 36 36 37 37 39 41 40 38 38 38 40 43 43 43 43 44 40 36 36 35 34 34 31 31 29 28 29 30 34 40 40
32 32 31 31 33 33 37 41 41 37 35 35 36 36 38 39 40 41 39 37 36 36 36 36 36 36 38 40 43 39 36 36 34 33 31 29 25 26 24 26 28 30 33
Lifted_Index
15 14 14 14 14 13 13 13 13 12 12 12 12 12 12 11 11 11 11 11 10 9 8 8 7 7 7 7 7 6 6 6 5 4 3 2 2 1 -0 -1 -1 -2 -2
14 14 14 14 13 13 13 13 12 12 12 12 12 12 12 11 11 11 11 10 10 9 8 7 7 7 7 7 7 6 6 5 4 4 3 3 2 2 1 0 -0 -1 -2
14 14 14 14 13 13 13 12 12 12 12 12 12 12 12 11 11 10 10 10 9 9 8 8 7 7 7 6 6 5 5 4 4 4 4 3 3 3 2 2 1 1 0
14 14 14 13 13 13 12 12 12 12 12 12 12 12 11 11 10 9 9 9 9 9 8 8 7 7 6 5 5 4 4 4 4 4 4 3 3 3 2 2 2 2 2
14 14 14 13 13 12 12 12 12 12 12 12 11 11 10 10 9 8 8 8 8 8 8 8 7 7 5 4 4 4 4 4 5 4 4 3 3 3 3 3 3 3 2
14 14 13 13 13 12 12 12 12 12 12 12 11 10 9 9 8 8 7 7 7 7 7 7 7 6 5 5 5 5 5 5 5 4 4 3 3 3 3 3 3 3 2
13 13 13 13 13 12 12 12 12 12 12 11 11 10 9 8 7 7 6 6 6 6 6 6 6 6 5 6 6 6 6 6 5 5 4 4 4 4 4 4 3 2 2
13 13 13 13 12 12 12 12 12 12 11 11 10 9 8 7 7 6 6 6 6 6 6 6 5 5 6 6 7 7 7 7 6 6 5 5 5 4 4 3 2 2 1
13 13 13 12 12 12 12 12 11 11 11 10 10 9 8 7 7 7 6 6 6 6 5 5 5 5 6 7 8 8 8 8 7 7 7 6 6 5 3 2 1 1 0
13 13 12 12 11 11 11 12 11 11 10 10 9 9 8 8 8 7 7 7 6 5 5 5 5 5 6 7 8 8 9 8 8 8 8 7 6 5 3 2 1 1 0
12 12 12 11 11 10 10 11 11 11 10 10 9 9 8 8 8 8 7 7 7 6 5 5 5 5 6 7 8 8 9 9 9 9 8 8 7 6 4 2 1 1 1
12 12 12 11 11 10 10 10 10 10 10 10 9 9 9 9 8 8 8 8 8 7 6 5 5 6 6 7 8 9 9 9 10 10 9 9 8 7 5 3 2 1 1
12 12 12 11 11 10 9 9 9 10 10 9 9 9 9 9 9 8 8 8 8 8 7 6 6 6 7 8 9 9 10 10 10 10 10 10 10 8 7 5 3 2 2
12 12 12 12 11 10 10 9 9 9 9 9 9 9 9 9 9 9 9 9 9 9 8 8 7 7 8 8 9 10 10 11 11 11 11 11 11 10 9 7 5 3 3
13 13 13 12 12 11 10 10 10 10 9 9 9 9 9 9 9 10 10 9 9 9 9 9 9 9 9 10 11 11 11 11 11 11 12 12 12 12 11 9 8 6 5
13 13 13 13 12 12 11 11 10 10 10 9 9 9 9 9 9 10 10 10 10 9 10 10 10 10 11 11 12 12 12 12 11 11 12 12 13 13 12 11 10 9 8
13 13 13 13 12 12 11 11 11 10 10 10 10 10 10 10 10 10 10 10 10 10 10 11 11 11 12 12 12 13 12 12 12 12 12 13 13 13 13 12 11 10 10
13 13 13 13 13 12 12 11 11 11 11 10 10 10 10 10 10 10 10 10 11 11 11 11 11 12 12 12 12 13 13 13 12 12 13 13 13 14 14 13 12 12 11
13 13 13 13 13 13 12 12 12 11 11 11 11 10 10 11 11 11 11 11 11 11 11 11 11 11 11 11 12 13 13 13 13 13 13 14 14 14 14 14 14 13 13
13 13 13 13 13 13 13 13 13 12 12 11 11 11 11 11 11 11 11 11 11 11 11 11 11 11 11 12 12 13 13 14 14 14 14 14 14 14 15 15 15 15 16
14 14 14 14 14 14 14 14 13 13 13 12 12 12 11 11 11 11 11 11 11 12 12 11 11 11 12 12 13 13 13 13 14 14 15 15 14 15 15 15 15 16 17
15 14 14 14 14 14 14 14 14 14 13 13 13 13 13 12 12 12 12 12 12 11 11 12 12 12 12 13 14 14 14 13 14 14 15 15 15 15 15 15 16 16 17
15 15 15 14 14 14 14 14 14 14 14 14 13 13 13 13 13 13 12 12 12 12 12 12 12 12 12 13 14 14 14 14 14 14 14 14 15 15 16 16 16 16 16
15 15 15 15 14 14 14 14 14 14 14 14 13 13 13 13 13 13 13 13 13 12 12 12 12 12 12 13 13 14 14 14 14 14 14 14 15 15 16 17 17 16 16
16 16 15 15 14 14 14 13 13 13 13 13 13 13 13 13 13 13 13 13 13 13 13 13 13 13 13 13 13 14 13 13 13 14 14 14 14 15 16 16 17 17 17
16 16 16 16 15 14 13 13 13 13 13 12 12 12 13 13 13 13 13 13 12 13 13 13 13 13 13 13 14 14 13 13 13 13 14 14 14 15 15 16 17 17 17